[[[{"header":{"parameterUnit":"kt","parameterCategory":2,"dx":1,"dy":1,"la1":30.253999710083008,"la2":30.299108505249023,"lo1":-89.0895004272461,"lo2":-89.04439544677734,"nx":28,"ny":28,"refTime":"2022-09-30T21:00:00:Z","depth":0,"parameterNumber":1,"parameterNumberName":"U-component_of_WINDS"},"data":[1.2361,1.2264,1.2261,1.2148,1.2126,1.2047,1.2017,1.1978,1.1946,1.1851,1.1795,1.178,1.1745,1.1675,1.1613,1.1607,1.1577,1.1546,1.1543,1.1691,1.1711,1.173,1.175,1.1542,1.1542,1.1387,1.1386,1.1385,1.2468,1.2446,1.2387,1.2326,1.2274,1.2303,1.2256,1.2209,1.2138,1.2098,1.2043,1.1958,1.189,1.1865,1.1797,1.1749,1.1755,1.173,1.1729,1.1721,1.1882,1.1904,1.1726,1.1726,1.1726,1.1726,1.1726,1.1726,1.2662,1.2605,1.2566,1.2501,1.247,1.2429,1.2373,1.2357,1.2298,1.2229,1.2236,1.2154,1.2112,1.2028,1.1999,1.1933,1.1959,1.1929,1.1919,1.1909,1.1897,1.211,1.1923,1.1923,1.1924,1.1924,1.1925,0,1.28,1.2801,1.2744,1.2686,1.2638,1.2592,1.2549,1.2515,1.2513,1.2464,1.2391,1.2348,1.2263,1.2192,1.2128,1.2103,1.212,1.2125,1.2102,1.2091,1.2092,1.2083,1.2337,1.2128,1.213,1.2131,1.2132,1.2133,1.2988,1.2924,1.2883,1.2843,1.2818,1.2755,1.2715,1.2719,1.2676,1.2623,1.2571,1.2503,1.2446,1.233,1.2307,1.2242,1.2248,1.2168,1.2238,1.2234,1.2238,1.2238,1.2229,1.2151,1.2149,1.2147,1.2145,0,1.3093,1.3088,1.2987,1.2952,1.2941,1.2873,1.2841,1.2784,1.2775,1.2694,1.2675,1.2658,1.2585,1.2577,1.2493,1.249,1.237,1.2383,1.2383,1.2382,1.2304,1.2308,1.2065,1.203,1.2255,1.2253,1.2251,0,1.3247,1.3163,1.3159,1.31,1.3007,1.3013,1.2919,1.2901,1.2866,1.2802,1.2826,1.2765,1.2764,1.2702,1.2697,1.26,1.2586,1.2574,1.2572,1.2567,1.2567,1.2536,1.2543,1.2581,1.2582,1.2583,1.2584,0,1.3405,1.3307,1.3214,1.319,1.3142,1.3098,1.3076,1.3037,1.2997,1.2946,1.2919,1.2859,1.2823,1.2775,1.2768,1.2816,1.2651,1.2714,1.2638,1.2638,1.2595,1.2596,1.2391,1.2586,1.2586,1.2586,1.2587,0,1.3525,1.3476,1.3344,1.3304,1.3277,1.3216,1.3156,1.3103,1.306,1.3053,1.3012,1.3024,1.2942,1.3005,1.289,1.2953,1.2916,1.29,1.2894,1.2878,1.2946,1.2822,1.2634,1.261,1.2875,1.2877,1.2879,0,1.3705,1.3571,1.3574,1.3448,1.3384,1.3412,1.3345,1.3306,1.3292,1.3234,1.3218,1.3151,1.3197,1.3174,1.312,1.3098,1.3018,1.311,1.3016,1.3013,1.302,1.285,1.2819,1.2678,1.291,1.2907,1.2905,0,1.3841,1.3786,1.3763,1.3734,1.3687,1.3633,1.3558,1.3493,1.3454,1.341,1.3342,1.3252,1.328,1.3242,1.3244,1.3188,1.3072,1.3225,1.3224,1.3192,1.2927,1.2898,1.2875,1.3086,1.3082,1.3079,1.2929,0,1.4012,1.3946,1.3887,1.3825,1.3784,1.3706,1.3697,1.3655,1.3662,1.3648,1.3551,1.3516,1.3448,1.3422,1.3427,1.3304,1.332,1.3352,1.3404,1.3296,1.3245,1.3225,1.3481,1.3482,1.3484,1.3485,0,0,1.418,1.4085,1.4091,1.4017,1.3981,1.401,1.3927,1.3896,1.3831,1.3804,1.3837,1.3701,1.367,1.3552,1.3518,1.3493,1.3467,1.3505,1.335,1.3335,1.3321,1.3267,1.3247,1.3487,1.3488,1.3488,1.3488,0,1.4239,1.4214,1.4134,1.4103,1.4056,1.4046,1.4027,1.3985,1.3971,1.3879,1.3899,1.384,1.3733,1.3695,1.3662,1.3522,1.3537,1.3504,1.3429,1.3363,1.3347,1.3332,1.3276,1.3257,1.3492,1.3491,1.3491,0,1.4367,1.4338,1.4299,1.4224,1.4193,1.4127,1.4183,1.4113,1.4063,1.4093,1.3999,1.3977,1.3928,1.382,1.3771,1.3797,1.36,1.3663,1.3654,1.3646,1.3582,1.3562,1.3544,1.3777,1.3778,1.3779,0,0,1.4418,1.4358,1.4326,1.4236,1.4215,1.4198,1.4163,1.4165,1.4122,1.4104,1.4076,1.4031,1.3968,1.3926,1.3867,1.3752,1.3738,1.3699,1.3685,1.3674,1.366,1.3593,1.3573,1.3783,1.3783,1.3783,0,0,1.4441,1.4401,1.4416,1.4311,1.4271,1.423,1.4174,1.419,1.4136,1.4143,1.4141,1.4129,1.4028,1.4005,1.406,1.3884,1.3939,1.3925,1.3901,1.3884,1.3871,1.3875,1.4107,0,0,0,0,0,1.4496,1.4407,1.4421,1.4402,1.4305,1.4224,1.4211,1.4208,1.4246,1.4202,1.4181,1.4201,1.4034,1.4082,1.4061,1.3998,1.3833,1.3824,1.3816,1.3758,1.374,1.3725,0,0,0,0,0,0,1.4488,1.4465,1.4423,1.4379,1.4358,1.4227,1.429,1.4287,1.4251,1.4256,1.4205,1.42,1.4194,1.4092,1.4073,1.4014,1.4113,1.383,1.3822,1.3815,1.3752,1.3737,1.3725,0,0,0,0,0,1.4482,1.4464,1.431,1.4381,1.4362,1.4337,1.4294,1.4291,1.4263,1.4229,1.4225,1.4264,1.4193,1.4177,1.4081,1.4022,1.4126,1.4119,1.3825,1.3819,1.3813,1.3745,0,0,0,0,0,0,1.4478,1.446,1.4306,1.43,1.4414,1.4344,1.4333,1.4295,1.4238,1.4233,1.4289,1.4294,1.419,1.4179,1.4166,1.4025,1.4136,1.4129,1.4125,1.382,1.3815,1.3811,0,0,0,0,0,0,1.447,1.4455,1.4303,1.4345,1.4344,1.4351,1.4341,1.4259,1.4237,1.4301,1.4304,1.4292,1.4208,1.4179,1.417,1.4042,1.4144,1.4137,1.4133,1.413,1.3816,1.3813,0,0,0,0,0,0,1.4464,1.4451,1.4347,1.4346,1.4345,1.4277,1.4278,1.4178,1.4277,1.4303,1.4285,1.4289,1.4208,1.4198,1.4172,1.4048,1.4044,1.4144,1.4139,1.4136,1.4134,0,0,0,0,0,0,0,1.4458,1.4547,1.4342,1.4346,1.4346,1.4244,1.4243,1.4241,1.4278,1.4281,1.4284,1.4287,1.4181,1.4174,1.4167,1.4053,0,0,1.4144,1.4141,0,0,0,0,0,0,0,0,1.4553,1.4549,1.4341,1.434,1.4339,1.4244,1.4243,1.4241,1.4278,1.4281,1.4284,1.4286,1.418,1.4174,1.4168,0,0,0,0,0,0,0,0,0,0,0,0,0,0,0,1.4341,1.434,0,1.4244,1.4243,1.4242,1.4278,1.4281,1.4283,1.4285,1.4178,1.4173,1.4168,0,0,0,0,0,0,0,0,0,0,0,0,0,0,0,0,0,0,0,0,0,0,0,0,0,0,0,0,0,0,0,0,0,0,0,0,0,0,0,0,0,0,0,0,0,0,0,0,0,0,0,0,0,0,0,0,0,0,0,0,0,0,0,0,0,0,0,0,0]}],[{"header":{"parameterUnit":"kt","parameterCategory":2,"dx":1,"dy":1,"la1":30.253999710083008,"la2":30.299108505249023,"lo1":-89.0895004272461,"lo2":-89.04439544677734,"nx":28,"ny":28,"refTime":"2022-09-30T21:00:00:Z","depth":0,"parameterNumber":2,"parameterNumberName":"V-component_of_WINDS"},"data":[-8.3627,-8.3887,-8.3929,-8.4245,-8.4336,-8.4559,-8.4652,-8.4776,-8.4884,-8.5154,-8.5316,-8.5383,-8.5507,-8.5709,-8.5885,-8.5911,-8.5983,-8.6046,-8.6065,-8.5748,-8.5706,-8.5667,-8.5608,-8.6061,-8.6061,-8.6388,-8.6391,-8.6394,-8.3392,-8.3485,-8.3664,-8.3866,-8.402,-8.3985,-8.4141,-8.4272,-8.4472,-8.4607,-8.4769,-8.5009,-8.5203,-8.5307,-8.55,-8.5622,-8.5615,-8.5671,-8.5663,-8.5683,-8.5345,-8.5283,-8.5673,-8.5673,-8.5673,-8.5673,-8.5673,-8.5673,-8.2976,-8.3131,-8.3277,-8.3472,-8.3584,-8.3719,-8.3873,-8.3952,-8.4127,-8.4334,-8.4348,-8.4574,-8.4716,-8.4967,-8.5061,-8.5238,-8.5183,-8.5256,-8.5275,-8.5293,-8.5308,-8.4833,-8.5272,-8.5271,-8.527,-8.5269,-8.5268,0,-8.2684,-8.2709,-8.2883,-8.3071,-8.3214,-8.3363,-8.3506,-8.3602,-8.3664,-8.3806,-8.4014,-8.4141,-8.439,-8.4589,-8.4778,-8.4861,-8.4837,-8.4839,-8.489,-8.4887,-8.4862,-8.488,-8.4328,-8.4825,-8.4822,-8.4819,-8.4817,-8.4816,-8.2269,-8.2444,-8.2616,-8.2732,-8.282,-8.3008,-8.3128,-8.317,-8.3295,-8.3476,-8.361,-8.381,-8.3973,-8.4298,-8.4385,-8.4571,-8.4561,-8.4747,-8.4589,-8.458,-8.4566,-8.4556,-8.4574,-8.4777,-8.4782,-8.4786,-8.4789,0,-8.2031,-8.2097,-8.238,-8.2533,-8.2576,-8.2757,-8.2887,-8.3042,-8.31,-8.3322,-8.3376,-8.3468,-8.367,-8.3729,-8.3971,-8.3995,-8.4293,-8.4278,-8.4245,-8.4245,-8.4418,-8.4402,-8.4969,-8.5046,-8.4576,-8.458,-8.4584,0,-8.1703,-8.193,-8.2015,-8.2176,-8.243,-8.2466,-8.2716,-8.2791,-8.2913,-8.3088,-8.307,-8.3234,-8.3283,-8.3455,-8.3491,-8.3744,-8.3789,-8.3823,-8.383,-8.3826,-8.3822,-8.3892,-8.3871,-8.3837,-8.3834,-8.3831,-8.3829,0,-8.1324,-8.1635,-8.1897,-8.1978,-8.2162,-8.2284,-8.2366,-8.2503,-8.262,-8.278,-8.2856,-8.304,-8.3141,-8.3282,-8.3327,-8.3217,-8.3638,-8.3496,-8.3672,-8.3671,-8.3762,-8.3756,-8.4243,-8.3825,-8.3825,-8.3824,-8.3823,0,-8.1068,-8.1231,-8.1601,-8.1753,-8.1833,-8.2005,-8.2189,-8.2349,-8.2495,-8.2529,-8.2655,-8.2649,-8.2875,-8.2731,-8.3042,-8.2887,-8.2987,-8.304,-8.3053,-8.3077,-8.2914,-8.3183,-8.364,-8.3691,-8.3099,-8.3093,-8.3088,0,-8.0618,-8.1008,-8.1041,-8.1391,-8.1579,-8.1547,-8.1738,-8.1867,-8.1928,-8.2096,-8.2162,-8.2352,-8.2256,-8.2324,-8.247,-8.2546,-8.2747,-8.252,-8.2761,-8.2769,-8.2725,-8.3146,-8.32,-8.3534,-8.3011,-8.3019,-8.3025,0,-8.0277,-8.0498,-8.0558,-8.0653,-8.083,-8.0986,-8.1206,-8.1402,-8.1512,-8.1658,-8.1843,-8.2111,-8.205,-8.2161,-8.2175,-8.2325,-8.2612,-8.2239,-8.2243,-8.2305,-8.2977,-8.3028,-8.3084,-8.2588,-8.2598,-8.2605,-8.2965,0,-7.9878,-8.008,-8.0245,-8.0452,-8.0581,-8.0803,-8.0865,-8.0993,-8.0994,-8.1053,-8.1325,-8.1444,-8.1643,-8.172,-8.1722,-8.2046,-8.2001,-8.1933,-8.1797,-8.2072,-8.2192,-8.2241,-8.1613,-8.161,-8.1607,-8.1604,0,0,-7.9431,-7.9722,-7.9751,-7.9965,-8.0076,-8.0039,-8.027,-8.0374,-8.0584,-8.0661,-8.0586,-8.098,-8.1081,-8.1404,-8.1495,-8.1575,-8.1639,-8.1539,-8.1941,-8.1978,-8.2012,-8.214,-8.219,-8.1599,-8.1597,-8.1596,-8.1595,0,-7.9298,-7.9403,-7.9631,-7.974,-7.9902,-7.9953,-8.0008,-8.0161,-8.0209,-8.0475,-8.044,-8.061,-8.0923,-8.1035,-8.1132,-8.1502,-8.1465,-8.1557,-8.1737,-8.1907,-8.1949,-8.1985,-8.2118,-8.2166,-8.1588,-8.1588,-8.1589,0,-7.8973,-7.9087,-7.9203,-7.9454,-7.9559,-7.9753,-7.9625,-7.9834,-7.9978,-7.9924,-8.0189,-8.0263,-8.0416,-8.0714,-8.0849,-8.0784,-8.1304,-8.115,-8.1171,-8.1187,-8.1355,-8.1405,-8.1449,-8.0866,-8.0864,-8.0861,0,0,-7.885,-7.9038,-7.9171,-7.943,-7.9499,-7.9578,-7.9686,-7.9698,-7.9837,-7.9893,-7.9988,-8.0124,-8.0306,-8.0425,-8.0599,-8.0917,-8.0952,-8.1058,-8.1092,-8.112,-8.1151,-8.1326,-8.1375,-8.0851,-8.085,-8.085,0,0,-7.879,-7.8956,-7.8932,-7.924,-7.9375,-7.9522,-7.9678,-7.9652,-7.9815,-7.9796,-7.9825,-7.9863,-8.0141,-8.0216,-8.007,-8.0552,-8.0416,-8.0452,-8.0493,-8.0537,-8.0571,-8.0547,-7.9954,0,0,0,0,0,-7.8686,-7.8935,-7.8912,-7.8973,-7.9289,-7.9535,-7.9576,-7.9606,-7.9509,-7.9632,-7.9707,-7.966,-8.0143,-8.0014,-8.0074,-8.0236,-8.0717,-8.074,-8.0763,-8.0891,-8.0937,-8.0975,0,0,0,0,0,0,-7.871,-7.8784,-7.8906,-7.9063,-7.9134,-7.9526,-7.937,-7.9385,-7.9497,-7.9484,-7.9647,-7.9665,-7.9694,-7.9986,-8.0039,-8.0193,-7.9937,-8.0726,-8.0746,-8.0764,-8.0907,-8.0944,-8.0976,0,0,0,0,0,-7.8729,-7.8789,-7.9288,-7.906,-7.9122,-7.9222,-7.9361,-7.9372,-7.9459,-7.9576,-7.9592,-7.9472,-7.9698,-7.9745,-8.0018,-8.0168,-7.99,-7.992,-8.0739,-8.0755,-8.0769,-8.0925,0,0,0,0,0,0,-7.8744,-7.8801,-7.9301,-7.9321,-7.8968,-7.92,-7.9238,-7.9361,-7.9543,-7.9562,-7.94,-7.9388,-7.9704,-7.9739,-7.9775,-8.0158,-7.987,-7.989,-7.9903,-8.0751,-8.0764,-8.0775,0,0,0,0,0,0,-7.8769,-7.8818,-7.9311,-7.9193,-7.9199,-7.9181,-7.9214,-7.9449,-7.9546,-7.9358,-7.9353,-7.9393,-7.9649,-7.9736,-7.9764,-8.013,-7.9848,-7.9867,-7.988,-7.9888,-8.0761,-8.0771,0,0,0,0,0,0,-7.879,-7.8832,-7.9188,-7.9193,-7.9198,-7.9424,-7.9389,-7.971,-7.9446,-7.935,-7.9423,-7.9412,-7.9648,-7.9676,-7.9757,-8.0111,-8.0125,-7.9848,-7.9861,-7.987,-7.9877,0,0,0,0,0,0,0,-7.8807,-7.8517,-7.9182,-7.9193,-7.9197,-7.9505,-7.951,-7.9516,-7.9444,-7.9435,-7.9425,-7.9417,-7.9738,-7.9759,-7.9781,-8.0096,0,0,-7.9846,-7.9856,0,0,0,0,0,0,0,0,-7.85,-7.8513,-7.9183,-7.9187,-7.9191,-7.9506,-7.951,-7.9515,-7.9442,-7.9435,-7.9427,-7.942,-7.9744,-7.9761,-7.9778,0,0,0,0,0,0,0,0,0,0,0,0,0,0,0,-7.9184,-7.9187,0,-7.9506,-7.951,-7.9514,-7.9441,-7.9435,-7.9429,-7.9423,-7.9749,-7.9763,-7.9777,0,0,0,0,0,0,0,0,0,0,0,0,0,0,0,0,0,0,0,0,0,0,0,0,0,0,0,0,0,0,0,0,0,0,0,0,0,0,0,0,0,0,0,0,0,0,0,0,0,0,0,0,0,0,0,0,0,0,0,0,0,0,0,0,0,0,0,0,0]}]]]